Terug naar catalogus

FENGYUN 1C DEB

ActiefPO
NORAD 30811·DEBRIS·🇨🇳 China

Gelanceerd May 10, 1999 vanaf Taiyuan Satellite Launch Center

Loading…

Volgende Passages (komende 24 uur)

TLE

VersSource: Space-Track

Epoch: Sep 14, 2026, 11:21 UTC

1 30811U 99025AUV 26257.47343188  .00001003  00000-0  10307-2 0  9995
2 30811  98.7612 274.5367 0278018  45.6115 316.7436 13.62619352966212

Volg FENGYUN 1C DEB in realtime met AllMySat

Download on the App Store